Location: Veytaux
(46.4185°N, 6.9320°E)
Time: 08:31:17
(UTC+00:00)

Cosmos 292 Rocket - Pass Details

Date: 27 May 2022
Orbit: 674 x 692 km, 74.0° (Epoch: 01 July)

Event Time Altitude Azimuth Distance (km) Brightness Sun altitude
Exits shadow 02:25:36 16° 224° (SW) 1,753 5.2 -11.5°
Maximum altitude 02:29:15 50° 296° (WNW) 869 4.2 -11.1°
Drops below altitude 10° 02:33:55 10° 13° (NNE) 2,130 7.3 -10.5°
Sets 02:36:18 0° 18° (NNE) 3,047 8.4 -10.2°
